[[{"header":{"parameterUnit":"m.s-1","parameterCategory":2,"la1":30.2991,"la2":30.254,"lo1":-89.0895,"lo2":-89.0444,"dy":0.0017,"dx":0.0017,"nx":28,"ny":28,"refTime":"2024-03-10T03:00:00:Z","depth":"0","parameterNumber":2,"parameterNumberName":"U-component_of_CURRENTS"},"data":[0,0,0,0,0,0,0,0,0,0,0,0,0,0,0,0,0,0,0,0,0,0,0,0,0,0,0,0,0,0,0,0,0,0,0,0,0,0,0,0,0,0,0,0,0,0,0,0,0,0,0,0,0,0,0,0,0,0,0.1715,0.1715,0,0.1748,0.1748,0.1749,0.176,0.176,0.176,0.176,0.1744,0.1743,0.1743,0,0,0,0,0,0,0,0,0,0,0,0,0,0.1694,0.1694,0.1715,0.1715,0.1716,0.1748,0.1748,0.1749,0.176,0.176,0.176,0.176,0.1744,0.1744,0.1743,0,0,0,0,0,0,0,0,0,0,0,0,0,0.1712,0.1694,0.1715,0.1726,0.1727,0.1748,0.1748,0.1749,0.176,0.176,0.176,0.176,0.1744,0.1744,0.1743,0.1741,0,0,0.1741,0.1741,0,0,0,0,0,0,0,0,0.1711,0.1712,0.1724,0.1725,0.1727,0.1751,0.1735,0.1744,0.176,0.1747,0.176,0.176,0.1742,0.1742,0.1748,0.174,0.174,0.1741,0.1741,0.1741,0.174,0,0,0,0,0,0,0,0.1709,0.1711,0.1727,0.1724,0.1726,0.174,0.1743,0.1737,0.1743,0.1748,0.1749,0.1754,0.1742,0.1748,0.1747,0.1739,0.1741,0.1741,0.174,0.174,0.1737,0.1737,0,0,0,0,0,0,0.1705,0.171,0.1726,0.1728,0.1719,0.1741,0.1743,0.1742,0.1744,0.1745,0.1754,0.1755,0.1749,0.1748,0.1747,0.1747,0.1741,0.174,0.174,0.1737,0.1737,0.1737,0,0,0,0,0,0,0.1704,0.1706,0.1725,0.1721,0.1724,0.1741,0.174,0.1743,0.1752,0.175,0.1749,0.1761,0.1749,0.1747,0.1744,0.1746,0.174,0.1739,0.1736,0.1737,0.1737,0.1746,0,0,0,0,0,0,0.1704,0.1705,0.1703,0.172,0.1724,0.1736,0.1741,0.1744,0.1756,0.1757,0.1755,0.1754,0.1749,0.1745,0.1743,0.1745,0.1739,0.1736,0.1737,0.1737,0.1746,0.1747,0.1748,0,0,0,0,0,0.1703,0.1703,0.1703,0.1705,0.1721,0.1736,0.174,0.1751,0.1756,0.1759,0.1759,0.1754,0.1747,0.1745,0.1743,0.1745,0.1736,0.1736,0.1737,0.1745,0.1747,0.1748,0,0,0,0,0,0,0.1693,0.1705,0.1705,0.1709,0.172,0.1738,0.1744,0.1753,0.1758,0.1756,0.1755,0.1753,0.1754,0.1748,0.1745,0.1746,0.1741,0.1742,0.1748,0.1749,0.1751,0.1762,0.1738,0,0,0,0,0,0.1689,0.1692,0.1705,0.1707,0.1713,0.1728,0.1737,0.1744,0.1752,0.1755,0.1751,0.175,0.1755,0.1751,0.175,0.1746,0.176,0.1748,0.1749,0.175,0.1759,0.1783,0.1788,0.1739,0.1739,0.1739,0,0,0.1685,0.1693,0.1694,0.1706,0.1715,0.1722,0.1733,0.1745,0.1751,0.175,0.1751,0.1754,0.1756,0.1756,0.1755,0.175,0.177,0.1751,0.1751,0.176,0.1785,0.1789,0.1794,0.174,0.174,0.1739,0,0,0.168,0.1685,0.1685,0.1696,0.171,0.172,0.1724,0.1738,0.1744,0.1745,0.1753,0.176,0.1752,0.1762,0.1766,0.1773,0.1779,0.1768,0.1779,0.1803,0.1807,0.1811,0.1834,0.184,0.1765,0.1765,0.1765,0,0.1674,0.1677,0.1688,0.1694,0.1704,0.1719,0.1724,0.1734,0.1743,0.1754,0.1742,0.1761,0.1758,0.1781,0.1783,0.1777,0.1791,0.1772,0.1805,0.181,0.1814,0.1835,0.1842,0.1766,0.1766,0.1765,0.1765,0,0.1668,0.1675,0.1679,0.1688,0.1698,0.1709,0.1723,0.1732,0.1738,0.1749,0.1767,0.1768,0.1784,0.1782,0.1783,0.1813,0.1814,0.1807,0.1803,0.1819,0.1841,0.1848,0.1766,0.1766,0.1766,0.1766,0,0,0.165,0.167,0.1672,0.1687,0.1699,0.1715,0.1722,0.1745,0.177,0.1765,0.1794,0.1798,0.1808,0.1814,0.182,0.1836,0.1872,0.1832,0.1833,0.1856,0.1927,0.1937,0.1945,0.1871,0.1872,0.1873,0.1931,0,0.1644,0.1661,0.1666,0.1688,0.1703,0.172,0.1732,0.1754,0.1772,0.18,0.181,0.1836,0.1818,0.1835,0.1846,0.1874,0.189,0.1857,0.1906,0.1908,0.1916,0.1953,0.1929,0.1979,0.1937,0.1938,0.1939,0,0.1637,0.1655,0.1673,0.171,0.1718,0.173,0.1775,0.179,0.1828,0.1839,0.1862,0.1874,0.1906,0.1884,0.193,0.191,0.1921,0.1932,0.1934,0.1947,0.193,0.1956,0.1993,0.1965,0.1949,0.1949,0.1948,0,0.1642,0.1664,0.1685,0.1697,0.1732,0.1749,0.1771,0.1807,0.1839,0.1879,0.1906,0.1929,0.1962,0.1971,0.1989,0.1965,0.2041,0.201,0.2026,0.2027,0.2019,0.2017,0.2038,0.2043,0.2042,0.2042,0.2042,0,0.1645,0.1668,0.1696,0.1717,0.1753,0.1769,0.1817,0.1841,0.1885,0.1935,0.1937,0.1985,0.1987,0.2025,0.2018,0.2055,0.2065,0.2045,0.2049,0.2021,0.2019,0.2004,0.1989,0.2044,0.2044,0.2044,0.2043,0,0.1656,0.167,0.1711,0.1751,0.1762,0.1798,0.1851,0.1885,0.1923,0.1991,0.2008,0.205,0.2098,0.2098,0.2133,0.2111,0.2093,0.2138,0.2105,0.2104,0.2076,0.2063,0.2023,0.1953,0.2162,0.2162,0.2163,0,0.1661,0.1682,0.174,0.1762,0.1783,0.1831,0.1856,0.1902,0.1947,0.2039,0.2075,0.2138,0.2175,0.2223,0.2216,0.2215,0.2134,0.2179,0.2125,0.209,0.2078,0.1986,0.1922,0.2116,0.2116,0.2116,0.2117,0,0.1674,0.17,0.1731,0.1782,0.1816,0.1853,0.1903,0.1945,0.201,0.2058,0.2133,0.217,0.2242,0.2236,0.2244,0.2238,0.2106,0.2181,0.2156,0.2062,0.1954,0.1884,0.206,0.2118,0.2118,0.2117,0.2117,0.2117,0.1676,0.1699,0.1736,0.1782,0.1823,0.1854,0.186,0.1919,0.1973,0.202,0.213,0.2155,0.223,0.2244,0.2219,0.2191,0.2133,0.2129,0.2122,0.2036,0.1948,0.2131,0.2184,0.2185,0.2185,0.2185,0.2185,0,0.1652,0.1674,0.1722,0.176,0.178,0.1813,0.186,0.1842,0.1866,0.1966,0.2009,0.2115,0.2143,0.2174,0.2212,0.2146,0.2021,0.2087,0.1953,0.1894,0.2083,0.2061,0.2078,0.2078,0.2078,0.2078,0.2078,0.2079,0.1634,0.1652,0.1676,0.1691,0.1712,0.1687,0.1689,0.168,0.1727,0.1771,0.1832,0.192,0.2112,0.2253,0.2226,0.216,0.1963,0.1911,0.185,0.2011,0.2013,0.2015,0.1991,0.1993,0.1993,0.1589,0.1586,0.1585]},{"header":{"parameterUnit":"m.s-1","parameterCategory":2,"la1":30.2991,"la2":30.254,"lo1":-89.0895,"lo2":-89.0444,"dy":0.0017,"dx":0.0017,"nx":28,"ny":28,"refTime":"2024-03-10T03:00:00:Z","depth":"0","parameterNumber":3,"parameterNumberName":"V-component_of_CURRENTS"},"data":[0,0,0,0,0,0,0,0,0,0,0,0,0,0,0,0,0,0,0,0,0,0,0,0,0,0,0,0,0,0,0,0,0,0,0,0,0,0,0,0,0,0,0,0,0,0,0,0,0,0,0,0,0,0,0,0,0,0,-0.0201,-0.0201,0,-0.0242,-0.0242,-0.0243,-0.027,-0.0271,-0.0271,-0.0272,-0.031,-0.0311,-0.0312,0,0,0,0,0,0,0,0,0,0,0,0,0,-0.0166,-0.0166,-0.0201,-0.0201,-0.0202,-0.0242,-0.0242,-0.0243,-0.027,-0.0271,-0.0271,-0.0272,-0.031,-0.0311,-0.0312,0,0,0,0,0,0,0,0,0,0,0,0,0,-0.0189,-0.0166,-0.02,-0.0222,-0.0225,-0.0242,-0.0242,-0.0243,-0.027,-0.0271,-0.0271,-0.0272,-0.031,-0.0311,-0.0312,-0.0306,0,0,-0.0315,-0.0315,0,0,0,0,0,0,0,0,-0.0188,-0.019,-0.0218,-0.0221,-0.0224,-0.0254,-0.0245,-0.0265,-0.027,-0.0251,-0.0272,-0.0272,-0.0292,-0.0295,-0.0298,-0.0308,-0.031,-0.0315,-0.0316,-0.0316,-0.0316,0,0,0,0,0,0,0,-0.0186,-0.0189,-0.0215,-0.0219,-0.0222,-0.0237,-0.0241,-0.0249,-0.0266,-0.0252,-0.0255,-0.0263,-0.0293,-0.0297,-0.0299,-0.031,-0.0315,-0.0316,-0.0317,-0.0317,-0.0336,-0.0336,0,0,0,0,0,0,-0.0184,-0.0187,-0.0213,-0.0216,-0.0209,-0.0237,-0.0241,-0.0242,-0.0266,-0.0271,-0.0262,-0.0264,-0.0295,-0.0298,-0.0301,-0.0294,-0.0316,-0.0317,-0.0318,-0.0336,-0.0336,-0.0336,0,0,0,0,0,0,-0.0183,-0.0185,-0.0212,-0.0205,-0.021,-0.0238,-0.0238,-0.0242,-0.0245,-0.0274,-0.0279,-0.0261,-0.0296,-0.0299,-0.0305,-0.0296,-0.0317,-0.0318,-0.0336,-0.0336,-0.0336,-0.0282,0,0,0,0,0,0,-0.0181,-0.0185,-0.018,-0.0204,-0.021,-0.0209,-0.0237,-0.0243,-0.025,-0.0253,-0.0274,-0.0279,-0.0296,-0.0303,-0.0306,-0.0298,-0.0319,-0.0336,-0.0336,-0.0336,-0.0284,-0.028,-0.0276,0,0,0,0,0,-0.018,-0.0171,-0.0179,-0.0182,-0.0204,-0.0209,-0.0212,-0.0233,-0.025,-0.024,-0.0262,-0.0278,-0.0305,-0.0304,-0.0307,-0.0299,-0.0337,-0.0336,-0.0336,-0.0285,-0.028,-0.0276,0,0,0,0,0,0,-0.0155,-0.0174,-0.0183,-0.0181,-0.0189,-0.0214,-0.0212,-0.0228,-0.0237,-0.0242,-0.0271,-0.0276,-0.028,-0.0297,-0.0296,-0.0306,-0.0325,-0.0326,-0.0285,-0.0281,-0.0278,-0.0263,-0.032,0,0,0,0,0,-0.0147,-0.0143,-0.0163,-0.0159,-0.0162,-0.0185,-0.0191,-0.0203,-0.0219,-0.0224,-0.0243,-0.0265,-0.0281,-0.0287,-0.0302,-0.0301,-0.032,-0.0301,-0.0297,-0.0294,-0.0286,-0.0308,-0.0305,-0.0335,-0.0335,-0.0335,0,0,-0.0138,-0.0146,-0.0146,-0.0153,-0.0163,-0.0159,-0.0189,-0.019,-0.0188,-0.0226,-0.0227,-0.025,-0.0279,-0.0281,-0.0285,-0.0294,-0.0296,-0.0294,-0.0291,-0.0284,-0.0308,-0.0305,-0.0302,-0.0335,-0.0335,-0.0335,0,0,-0.0114,-0.0122,-0.011,-0.0113,-0.0123,-0.0135,-0.0133,-0.0152,-0.0159,-0.0163,-0.0195,-0.021,-0.0232,-0.025,-0.0263,-0.0248,-0.0277,-0.0257,-0.0225,-0.0246,-0.0244,-0.0242,-0.0261,-0.0261,-0.0255,-0.0255,-0.0255,0,-0.0104,-0.0092,-0.0107,-0.0096,-0.0097,-0.0122,-0.0109,-0.0117,-0.0136,-0.0139,-0.0156,-0.0194,-0.0217,-0.0225,-0.0223,-0.0237,-0.0256,-0.0236,-0.024,-0.0239,-0.0237,-0.0258,-0.0259,-0.0252,-0.0253,-0.0253,-0.0253,0,-0.0072,-0.0063,-0.0055,-0.005,-0.005,-0.004,-0.0057,-0.0055,-0.0073,-0.0088,-0.0099,-0.0133,-0.0156,-0.0169,-0.0191,-0.0195,-0.0212,-0.0232,-0.0247,-0.0231,-0.0254,-0.0256,-0.0249,-0.025,-0.025,-0.0251,0,0,-0.0047,-0.0035,-0.0032,-0.0022,-0.0024,-0.0021,-0.0012,-0.0012,-0.0007,-0.003,-0.0028,-0.0062,-0.0085,-0.0102,-0.0134,-0.0153,-0.0164,-0.0185,-0.0187,-0.0197,-0.0211,-0.0231,-0.0235,-0.0185,-0.0185,-0.0185,-0.023,0,-0.0017,0.0014,0.0011,0.0038,0.005,0.0036,0.0048,0.0044,0.0031,0.0029,-0.0008,-0.0021,-0.0059,-0.007,-0.0094,-0.0146,-0.0167,-0.015,-0.0232,-0.0234,-0.0247,-0.0237,-0.0246,-0.0287,-0.0232,-0.0232,-0.0232,0,0.0017,0.0032,0.0063,0.0082,0.0086,0.0098,0.011,0.0116,0.0107,0.0098,0.0079,0.0045,0.0017,-0.0022,-0.0093,-0.0082,-0.0138,-0.0182,-0.0185,-0.0222,-0.0257,-0.0296,-0.0293,-0.0419,-0.0235,-0.0235,-0.0235,0,0.0042,0.0069,0.0096,0.0102,0.0117,0.013,0.0137,0.0137,0.0149,0.0139,0.0143,0.01,0.0082,0.0009,-0.0082,-0.0089,-0.0165,-0.0189,-0.0259,-0.0261,-0.0293,-0.0298,-0.0414,-0.0238,-0.0238,-0.0238,-0.0238,0,0.0075,0.0095,0.011,0.0125,0.016,0.0157,0.0189,0.0194,0.0202,0.0229,0.0179,0.0188,0.0088,0.003,-0.006,-0.0161,-0.015,-0.0247,-0.0272,-0.0275,-0.0278,-0.041,-0.0482,-0.024,-0.024,-0.0239,-0.0239,0,0.01,0.0107,0.014,0.0164,0.0173,0.0197,0.0227,0.0253,0.0252,0.0285,0.0285,0.0252,0.0181,0.0069,-0.0045,-0.0127,-0.0307,-0.027,-0.0265,-0.0288,-0.0468,-0.0536,-0.0683,-0.0743,-0.035,-0.035,-0.0351,0,0.0116,0.0137,0.0173,0.0196,0.0208,0.0239,0.0269,0.028,0.0313,0.0332,0.0359,0.0299,0.0279,0.01,-0.0065,-0.0226,-0.0344,-0.0339,-0.0355,-0.0477,-0.0571,-0.0624,-0.0668,-0.038,-0.038,-0.0381,-0.0382,0,0.0152,0.0165,0.0193,0.0243,0.0277,0.0318,0.0361,0.0395,0.042,0.0447,0.0483,0.0464,0.0294,0.0135,-0.0092,-0.0211,-0.0442,-0.0357,-0.0488,-0.0606,-0.0667,-0.0736,-0.0353,-0.0387,-0.0387,-0.0386,-0.0386,-0.0386,0.0184,0.0215,0.0255,0.0303,0.0343,0.0405,0.0449,0.0499,0.0558,0.0608,0.0582,0.0566,0.0317,0.0008,-0.0167,-0.0503,-0.0501,-0.0599,-0.0671,-0.0712,-0.0776,-0.0402,-0.0461,-0.0461,-0.0461,-0.0461,-0.0461,0,0.0238,0.027,0.0316,0.0376,0.0433,0.0441,0.0521,0.057,0.0654,0.0672,0.069,0.0529,0.0231,-0.0085,-0.0527,-0.0762,-0.085,-0.0903,-0.0988,-0.1016,-0.0687,-0.0694,-0.0801,-0.0801,-0.0801,-0.08,-0.08,-0.08,0.0267,0.033,0.0353,0.045,0.049,0.0572,0.0624,0.0689,0.072,0.072,0.0671,0.0608,0.0313,-0.0405,-0.0966,-0.109,-0.1264,-0.1305,-0.1391,-0.1177,-0.1154,-0.1132,-0.1155,-0.1357,-0.1357,-0.1686,-0.1689,-0.1692]}],[{"header":{"parameterUnit":"m.s-1","parameterCategory":2,"la1":30.2991,"la2":30.254,"lo1":-89.0895,"lo2":-89.0444,"dy":0.0017,"dx":0.0017,"nx":28,"ny":28,"refTime":"2024-03-10T03:00:00:Z","depth":"2","parameterNumber":2,"parameterNumberName":"U-component_of_CURRENTS"},"data":[0,0,0,0,0,0,0,0,0,0,0,0,0,0,0,0,0,0,0,0,0,0,0,0,0,0,0,0,0,0,0,0,0,0,0,0,0,0,0,0,0,0,0,0,0,0,0,0,0,0,0,0,0,0,0,0,0,0,0.1661,0.1662,0,0.1696,0.1697,0.1697,0.1711,0.1711,0.1711,0.1711,0.1693,0.1692,0.1692,0,0,0,0,0,0,0,0,0,0,0,0,0,0.1634,0.1634,0.1661,0.1662,0.1662,0.1696,0.1697,0.1697,0.1711,0.1711,0.1711,0.1711,0.1693,0.1692,0.1691,0,0,0,0,0,0,0,0,0,0,0,0,0,0.1654,0.1634,0.1661,0.1674,0.1676,0.1696,0.1697,0.1697,0.1711,0.1711,0.1711,0.1711,0.1693,0.1692,0.1691,0.1686,0,0,0.1689,0.1689,0,0,0,0,0,0,0,0,0.1653,0.1655,0.1672,0.1674,0.1675,0.1701,0.1681,0.1691,0.1711,0.1697,0.1711,0.1711,0.1691,0.169,0.1696,0.1685,0.1684,0.1689,0.1688,0.1688,0.1688,0,0,0,0,0,0,0,0.1651,0.1654,0.1674,0.1673,0.1675,0.1688,0.1691,0.1683,0.1691,0.1698,0.1699,0.1705,0.1691,0.1697,0.1695,0.1684,0.1689,0.1688,0.1688,0.1687,0.1681,0.1681,0,0,0,0,0,0,0.1648,0.1652,0.1673,0.1675,0.1665,0.1689,0.1691,0.1691,0.1692,0.1693,0.1705,0.1706,0.1698,0.1696,0.1695,0.1696,0.1688,0.1687,0.1687,0.168,0.1681,0.1681,0,0,0,0,0,0,0.1647,0.1649,0.1671,0.1666,0.167,0.1689,0.1689,0.1692,0.1702,0.1699,0.1698,0.1713,0.1698,0.1696,0.169,0.1695,0.1687,0.1686,0.168,0.168,0.1681,0.1693,0,0,0,0,0,0,0.1646,0.1649,0.1648,0.1665,0.167,0.1682,0.1689,0.1693,0.1706,0.1707,0.1705,0.1703,0.1698,0.1692,0.1689,0.1694,0.1686,0.168,0.168,0.1681,0.1692,0.1693,0.1695,0,0,0,0,0,0.1645,0.1648,0.1648,0.1651,0.1668,0.1682,0.1685,0.1699,0.1706,0.1708,0.1709,0.1703,0.1694,0.1691,0.1689,0.1692,0.1679,0.168,0.1681,0.1691,0.1693,0.1695,0,0,0,0,0,0,0.1636,0.165,0.165,0.1657,0.1666,0.1685,0.1691,0.1701,0.1705,0.1705,0.1703,0.1701,0.1701,0.1694,0.1691,0.1693,0.1687,0.1687,0.1696,0.1698,0.1699,0.171,0.1685,0,0,0,0,0,0.1633,0.1637,0.165,0.1654,0.1659,0.1675,0.1684,0.1692,0.1699,0.1702,0.1699,0.1698,0.1702,0.1697,0.1696,0.1691,0.1703,0.1693,0.1695,0.1696,0.1704,0.1728,0.1733,0.1683,0.1683,0.1683,0,0,0.163,0.1639,0.1641,0.1653,0.1662,0.1668,0.168,0.1692,0.1699,0.1697,0.1699,0.1702,0.1703,0.1703,0.1702,0.1696,0.1716,0.1697,0.1698,0.1706,0.1729,0.1734,0.1739,0.1684,0.1683,0.1683,0,0,0.1626,0.1633,0.1633,0.1643,0.1657,0.1667,0.167,0.1684,0.1692,0.1692,0.1701,0.1709,0.1699,0.171,0.1713,0.1721,0.1726,0.1717,0.1729,0.1752,0.1756,0.176,0.1782,0.1788,0.1714,0.1714,0.1714,0,0.1621,0.1625,0.1636,0.164,0.1651,0.1666,0.1671,0.168,0.169,0.1701,0.169,0.1709,0.1706,0.1729,0.1732,0.1725,0.1738,0.1721,0.1754,0.1759,0.1763,0.1784,0.179,0.1715,0.1715,0.1715,0.1715,0,0.1614,0.1622,0.1626,0.1634,0.1644,0.1654,0.1668,0.1678,0.1686,0.1697,0.1716,0.1717,0.1733,0.1732,0.1732,0.1763,0.1764,0.1757,0.1751,0.1769,0.1789,0.1796,0.1716,0.1716,0.1715,0.1715,0,0,0.1597,0.1617,0.1619,0.1634,0.1646,0.1661,0.1669,0.1691,0.1717,0.1713,0.1743,0.1748,0.1759,0.1765,0.1771,0.1786,0.1823,0.1783,0.1784,0.1806,0.1876,0.1881,0.1888,0.1822,0.1823,0.1824,0.1879,0,0.159,0.1607,0.1612,0.1633,0.1649,0.1666,0.1679,0.1701,0.1719,0.1748,0.1759,0.1786,0.1769,0.1786,0.1798,0.1825,0.184,0.1809,0.1854,0.1856,0.186,0.1896,0.1741,0.1778,0.1885,0.1887,0.1887,0,0.1581,0.16,0.1619,0.1656,0.1663,0.1677,0.1722,0.1738,0.1775,0.1788,0.1811,0.1824,0.1856,0.1835,0.188,0.1862,0.1871,0.1882,0.1884,0.1891,0.1873,0.1777,0.1785,0.1898,0.1897,0.1896,0.1896,0,0.1587,0.1609,0.1631,0.1643,0.1678,0.1698,0.172,0.1756,0.1787,0.1829,0.1855,0.1879,0.1912,0.192,0.1938,0.1916,0.1988,0.1957,0.1969,0.1969,0.1848,0.1836,0.1989,0.1988,0.1988,0.1988,0.1988,0,0.1592,0.1616,0.1643,0.1666,0.1703,0.1719,0.1769,0.1792,0.1835,0.1883,0.1887,0.1933,0.1937,0.1974,0.1966,0.1999,0.2011,0.1987,0.199,0.1848,0.1836,0.1946,0.194,0.199,0.199,0.1989,0.1989,0,0.1607,0.162,0.1661,0.17,0.1713,0.175,0.1805,0.1839,0.1876,0.194,0.1957,0.1997,0.2042,0.2044,0.2077,0.2054,0.2071,0.2075,0.1912,0.1895,0.2025,0.2019,0.2091,0.2092,0.2093,0.2093,0.2094,0,0.1614,0.1636,0.1691,0.1713,0.1736,0.1786,0.1812,0.1858,0.19,0.1985,0.2018,0.2079,0.211,0.2154,0.2126,0.2119,0.212,0.1971,0.19,0.2044,0.2039,0.2032,0.2026,0.1736,0.1734,0.1732,0.173,0,0.163,0.1655,0.1688,0.1734,0.1771,0.1808,0.1859,0.1897,0.1957,0.2,0.2064,0.2095,0.2146,0.2064,0.2064,0.2037,0.1956,0.1933,0.2126,0.1747,0.1717,0.171,0.1713,0.1712,0.1714,0.1715,0.1716,0.1717,0.1637,0.1659,0.1694,0.1738,0.1779,0.1804,0.1811,0.1861,0.1906,0.1926,0.2031,0.1995,0.1999,0.1915,0.1858,0.1801,0.1932,0.1814,0.1816,0.1821,0.1783,0.1757,0.1752,0.1754,0.1756,0.1757,0.1759,0,0.161,0.1634,0.1682,0.1715,0.173,0.1768,0.1807,0.1772,0.1778,0.1829,0.1847,0.1697,0.1653,0.1638,0.1537,0.1551,0.1494,0.1472,0.1364,0.1386,0.1405,0.134,0.1194,0.1192,0.119,0.1188,0,0,0.1591,0.1607,0.163,0.1638,0.1661,0.1629,0.1628,0.1583,0.1582,0.1534,0.1497,0.1586,0.1624,0.1385,0.1364,0.1255,0.1304,0.1211,0.1674,0.1572,0.1587,0.1626,0.1556,0,0,0,0,0]},{"header":{"parameterUnit":"m.s-1","parameterCategory":2,"la1":30.2991,"la2":30.254,"lo1":-89.0895,"lo2":-89.0444,"dy":0.0017,"dx":0.0017,"nx":28,"ny":28,"refTime":"2024-03-10T03:00:00:Z","depth":"2","parameterNumber":3,"parameterNumberName":"V-component_of_CURRENTS"},"data":[0,0,0,0,0,0,0,0,0,0,0,0,0,0,0,0,0,0,0,0,0,0,0,0,0,0,0,0,0,0,0,0,0,0,0,0,0,0,0,0,0,0,0,0,0,0,0,0,0,0,0,0,0,0,0,0,0,0,-0.0062,-0.0062,0,-0.0105,-0.0106,-0.0106,-0.0135,-0.0136,-0.0136,-0.0137,-0.0178,-0.0178,-0.0179,0,0,0,0,0,0,0,0,0,0,0,0,0,-0.0023,-0.0023,-0.0062,-0.0062,-0.0063,-0.0105,-0.0106,-0.0106,-0.0135,-0.0136,-0.0136,-0.0137,-0.0177,-0.0178,-0.0179,0,0,0,0,0,0,0,0,0,0,0,0,0,-0.0048,-0.0023,-0.0061,-0.0085,-0.0088,-0.0105,-0.0106,-0.0106,-0.0135,-0.0136,-0.0137,-0.0137,-0.0177,-0.0178,-0.0179,-0.0172,0,0,-0.0182,-0.0183,0,0,0,0,0,0,0,0,-0.0046,-0.0049,-0.0081,-0.0083,-0.0086,-0.0118,-0.0107,-0.0129,-0.0135,-0.0114,-0.0137,-0.0137,-0.0159,-0.0161,-0.0164,-0.0174,-0.0175,-0.0182,-0.0183,-0.0183,-0.0184,0,0,0,0,0,0,0,-0.0044,-0.0047,-0.0076,-0.0081,-0.0085,-0.01,-0.0104,-0.0111,-0.013,-0.0116,-0.0119,-0.0128,-0.016,-0.0163,-0.0165,-0.0176,-0.0182,-0.0183,-0.0184,-0.0184,-0.0205,-0.0205,0,0,0,0,0,0,-0.0043,-0.0045,-0.0075,-0.0078,-0.0071,-0.01,-0.0104,-0.0105,-0.013,-0.0135,-0.0127,-0.0129,-0.0161,-0.0164,-0.0167,-0.0164,-0.0183,-0.0184,-0.0185,-0.0205,-0.0205,-0.0205,0,0,0,0,0,0,-0.0041,-0.0044,-0.0073,-0.0065,-0.007,-0.01,-0.0101,-0.0106,-0.011,-0.0139,-0.0144,-0.0128,-0.0162,-0.0165,-0.0172,-0.0166,-0.0185,-0.0186,-0.0205,-0.0205,-0.0205,-0.0156,0,0,0,0,0,0,-0.004,-0.0043,-0.0041,-0.0065,-0.0071,-0.0072,-0.01,-0.0106,-0.0116,-0.0119,-0.0141,-0.0146,-0.0162,-0.017,-0.0173,-0.0167,-0.0186,-0.0205,-0.0205,-0.0205,-0.0157,-0.0154,-0.0151,0,0,0,0,0,-0.0038,-0.0032,-0.004,-0.0044,-0.0067,-0.0072,-0.0075,-0.0098,-0.0115,-0.0107,-0.0129,-0.0145,-0.0172,-0.0171,-0.0174,-0.0169,-0.0205,-0.0205,-0.0205,-0.0159,-0.0154,-0.0151,0,0,0,0,0,0,-0.0016,-0.0035,-0.0045,-0.0045,-0.0053,-0.0078,-0.0078,-0.0094,-0.0104,-0.011,-0.0138,-0.0143,-0.0149,-0.0166,-0.0163,-0.0176,-0.0194,-0.0194,-0.0157,-0.0154,-0.0151,-0.0137,-0.0187,0,0,0,0,0,-0.0009,-0.0007,-0.0027,-0.0025,-0.0028,-0.0051,-0.0058,-0.007,-0.0087,-0.0093,-0.0112,-0.0135,-0.015,-0.0157,-0.0171,-0.0172,-0.0191,-0.0174,-0.0171,-0.0168,-0.016,-0.0183,-0.0181,-0.0204,-0.0204,-0.0204,0,0,-0.0002,-0.0012,-0.0012,-0.002,-0.003,-0.0027,-0.0056,-0.0059,-0.0058,-0.0095,-0.0099,-0.0121,-0.0148,-0.0152,-0.0157,-0.0165,-0.0172,-0.0168,-0.0165,-0.0159,-0.0183,-0.018,-0.0178,-0.0204,-0.0204,-0.0204,0,0,0.0017,0.0009,0.0018,0.0016,0.0005,-0.0007,-0.0006,-0.0025,-0.0033,-0.0039,-0.007,-0.0086,-0.0108,-0.0125,-0.0138,-0.0125,-0.0154,-0.0135,-0.0106,-0.0128,-0.0126,-0.0125,-0.0145,-0.0146,-0.0134,-0.0134,-0.0133,0,0.0025,0.0036,0.0021,0.0031,0.0029,0.0005,0.0016,0.0008,-0.0012,-0.0016,-0.0034,-0.0072,-0.0095,-0.0103,-0.0103,-0.0116,-0.0135,-0.0116,-0.0123,-0.0122,-0.0121,-0.0142,-0.0144,-0.0131,-0.0131,-0.0132,-0.0132,0,0.0054,0.0061,0.0067,0.0072,0.0071,0.0079,0.0063,0.0063,0.0044,0.0029,0.0016,-0.0017,-0.004,-0.0053,-0.0074,-0.008,-0.0097,-0.0115,-0.0129,-0.0115,-0.0139,-0.0141,-0.0128,-0.0129,-0.0129,-0.013,0,0,0.0075,0.0086,0.0088,0.0098,0.0094,0.0098,0.0103,0.0103,0.0107,0.0081,0.0082,0.0047,0.0024,0.0008,-0.0023,-0.0043,-0.0057,-0.0073,-0.0076,-0.0086,-0.0106,-0.0125,-0.013,-0.0077,-0.0077,-0.0077,-0.0124,0,0.0102,0.0131,0.0127,0.0152,0.0164,0.015,0.016,0.0155,0.0141,0.0137,0.01,0.0086,0.0049,0.0037,0.0012,-0.0039,-0.0061,-0.0043,-0.0124,-0.0126,-0.0138,-0.0132,-0.0106,-0.0147,-0.0127,-0.0127,-0.0127,0,0.0133,0.0148,0.0177,0.0195,0.02,0.0209,0.022,0.0225,0.0214,0.0204,0.0182,0.0149,0.0118,0.0081,0.0008,0.002,-0.0036,-0.0079,-0.0082,-0.0117,-0.0149,-0.0158,-0.0152,-0.0132,-0.0131,-0.0131,-0.0131,0,0.0159,0.0184,0.0209,0.0214,0.0229,0.024,0.0247,0.0245,0.0257,0.0243,0.0246,0.02,0.018,0.0108,0.0017,0.0011,-0.0067,-0.0089,-0.0158,-0.016,-0.0162,-0.0165,-0.0141,-0.0141,-0.0141,-0.0141,-0.014,0,0.0191,0.021,0.0224,0.0237,0.0272,0.0268,0.0298,0.0301,0.0307,0.0333,0.028,0.0288,0.0185,0.0126,0.0037,-0.0064,-0.0054,-0.0149,-0.0172,-0.0146,-0.0146,-0.0152,-0.0153,-0.0142,-0.0142,-0.0142,-0.0141,0,0.0216,0.0222,0.0254,0.0277,0.0285,0.0309,0.0336,0.0362,0.0358,0.039,0.0388,0.0351,0.0276,0.0163,0.0047,-0.0033,-0.0133,-0.0174,-0.0135,-0.0153,-0.0217,-0.0215,-0.0252,-0.0253,-0.0254,-0.0255,-0.0255,0,0.0232,0.0252,0.0288,0.0311,0.0322,0.0351,0.0381,0.039,0.0423,0.0436,0.0463,0.0398,0.0373,0.0191,0.0034,-0.0126,-0.0149,-0.0209,-0.0218,-0.0208,-0.0228,-0.0224,-0.0221,-0.0203,-0.0203,-0.0203,-0.0203,0,0.0268,0.0281,0.0308,0.0359,0.0392,0.0433,0.0475,0.051,0.0533,0.0556,0.0585,0.0561,0.0392,0.0244,0.0019,-0.0087,-0.0182,-0.0217,-0.0215,-0.0179,-0.0166,-0.0183,-0.0181,-0.0204,-0.0204,-0.0204,-0.0204,-0.0204,0.03,0.033,0.0371,0.042,0.0459,0.0524,0.0566,0.0615,0.0673,0.0715,0.0683,0.0647,0.0478,0.0194,0.0006,-0.0198,-0.0194,-0.0256,-0.0254,-0.0252,-0.0238,-0.0227,-0.0274,-0.0275,-0.0275,-0.0275,-0.0275,0,0.0356,0.0387,0.0433,0.0496,0.0555,0.0559,0.064,0.069,0.0769,0.0773,0.0781,0.0628,0.0449,0.0235,-0.006,-0.0231,-0.0238,-0.0289,-0.0252,-0.025,-0.0248,-0.0233,-0.0269,-0.027,-0.027,-0.0271,0,0,0.0386,0.0451,0.0477,0.0577,0.0614,0.0697,0.0747,0.0809,0.0833,0.0848,0.0808,0.0746,0.05,0.0295,0.0062,-0.011,-0.0146,-0.0146,-0.0131,-0.0059,-0.0055,-0.0209,-0.018,0,0,0,0,0]}],[{"header":{"parameterUnit":"m.s-1","parameterCategory":2,"la1":30.2991,"la2":30.254,"lo1":-89.0895,"lo2":-89.0444,"dy":0.0017,"dx":0.0017,"nx":28,"ny":28,"refTime":"2024-03-10T03:00:00:Z","depth":"4","parameterNumber":2,"parameterNumberName":"U-component_of_CURRENTS"},"data":[0,0,0,0,0,0,0,0,0,0,0,0,0,0,0,0,0,0,0,0,0,0,0,0,0,0,0,0,0,0,0,0,0,0,0,0,0,0,0,0,0,0,0,0,0,0,0,0,0,0,0,0,0,0,0,0,0,0,0.09,0.0901,0,0.095,0.0951,0.0951,0.0996,0.0997,0.0997,0.0998,0.1066,0.1067,0.1068,0,0,0,0,0,0,0,0,0,0,0,0,0,0.0851,0.0851,0.09,0.0901,0.0902,0.095,0.0951,0.0951,0.0996,0.0997,0.0998,0.0998,0.1065,0.1067,0.1068,0,0,0,0,0,0,0,0,0,0,0,0,0,0.0882,0.0851,0.09,0.0931,0.0934,0.095,0.0951,0.0952,0.0996,0.0997,0.0998,0.0999,0.1065,0.1067,0.1068,0.1059,0,0,0.1074,0.1074,0,0,0,0,0,0,0,0,0.088,0.0883,0.0926,0.0929,0.0933,0.097,0.0959,0.0989,0.0995,0.097,0.0998,0.0999,0.1036,0.104,0.1044,0.1062,0.1065,0.1074,0.1075,0.1076,0.1076,0,0,0,0,0,0,0,0.0878,0.0882,0.0918,0.0926,0.0931,0.0945,0.0951,0.0964,0.0996,0.0973,0.0977,0.0985,0.1038,0.1042,0.1046,0.1066,0.1074,0.1075,0.1076,0.1077,0.116,0.1161,0,0,0,0,0,0,0.0874,0.0879,0.0917,0.092,0.091,0.0946,0.0951,0.0955,0.0995,0.1003,0.0984,0.0987,0.1039,0.1044,0.1049,0.1117,0.1076,0.1077,0.1078,0.1159,0.1161,0.1162,0,0,0,0,0,0,0.0872,0.0876,0.0915,0.0903,0.0909,0.0945,0.0949,0.0956,0.0988,0.1004,0.1011,0.1013,0.104,0.1046,0.1093,0.1117,0.1078,0.108,0.1158,0.116,0.1161,0.1204,0,0,0,0,0,0,0.087,0.0875,0.089,0.0902,0.0909,0.0953,0.0949,0.0956,0.099,0.0995,0.103,0.1036,0.1041,0.1091,0.1095,0.1119,0.1081,0.1156,0.1159,0.1161,0.1201,0.1207,0.1212,0,0,0,0,0,0.0868,0.0883,0.089,0.0895,0.0923,0.0954,0.096,0.0988,0.0991,0.1018,0.1041,0.1037,0.1107,0.1094,0.1098,0.1123,0.1155,0.1158,0.116,0.1199,0.1206,0.1212,0,0,0,0,0,0,0.0872,0.0889,0.0897,0.0917,0.0947,0.0963,0.0987,0.1,0.1036,0.1049,0.1054,0.1063,0.1112,0.1111,0.1096,0.1153,0.1129,0.1133,0.1157,0.1163,0.1169,0.1172,0.1083,0,0,0,0,0,0.0877,0.0893,0.0914,0.0935,0.0948,0.0969,0.0989,0.1013,0.1039,0.1057,0.1079,0.1101,0.112,0.1139,0.116,0.1191,0.1191,0.1209,0.1215,0.1219,0.1225,0.1244,0.1252,0.117,0.117,0.117,0,0,0.0883,0.0897,0.0906,0.0938,0.0957,0.0985,0.0984,0.1028,0.1057,0.1057,0.111,0.1127,0.1134,0.1174,0.1195,0.1181,0.1244,0.1223,0.1226,0.123,0.1248,0.1256,0.1263,0.1172,0.1172,0.1172,0,0,0.0904,0.0916,0.0938,0.0963,0.1007,0.1019,0.1036,0.1073,0.1098,0.1145,0.1151,0.1186,0.1217,0.123,0.1234,0.1281,0.1275,0.1288,0.1318,0.1337,0.1344,0.1349,0.1366,0.1373,0.1288,0.1289,0.1289,0,0.0916,0.0939,0.0954,0.0984,0.1005,0.1034,0.1065,0.1092,0.1146,0.1166,0.1173,0.1226,0.1239,0.1271,0.1292,0.1293,0.1303,0.1291,0.1344,0.1349,0.1355,0.137,0.1377,0.1291,0.1291,0.129,0.129,0,0.095,0.0976,0.0992,0.1031,0.1059,0.1095,0.1126,0.1169,0.1194,0.1216,0.1271,0.1291,0.1322,0.1329,0.1325,0.137,0.1365,0.135,0.1325,0.1365,0.1379,0.1386,0.1294,0.1293,0.1293,0.1292,0,0,0.0955,0.1005,0.1014,0.1035,0.1087,0.1111,0.116,0.1205,0.1241,0.1289,0.1328,0.1363,0.1381,0.1388,0.1394,0.141,0.1458,0.1402,0.1402,0.1416,0.1506,0.1424,0.1423,0.1454,0.1456,0.1457,0.1502,0,0.098,0.1029,0.1053,0.1104,0.1124,0.1163,0.1202,0.1251,0.1291,0.1342,0.1363,0.1409,0.1399,0.1427,0.1443,0.146,0.1478,0.1448,0.1467,0.1468,0.1388,0.1429,0.1461,0.1506,0.1508,0.1509,0.151,0,0.1001,0.103,0.1077,0.1127,0.1142,0.1183,0.1247,0.1295,0.1361,0.1393,0.1438,0.1461,0.1507,0.1488,0.1532,0.1517,0.152,0.1521,0.1523,0.1435,0.1398,0.1457,0.1522,0.1521,0.152,0.1519,0.1518,0,0.0975,0.1043,0.1077,0.1096,0.1161,0.1198,0.1245,0.1315,0.1355,0.1439,0.1479,0.1523,0.1565,0.1574,0.1588,0.1569,0.1626,0.1595,0.1522,0.1516,0.1556,0.1549,0.1622,0.1622,0.1621,0.1621,0.1621,0,0.0965,0.0995,0.1074,0.1089,0.114,0.12,0.1265,0.1318,0.1399,0.1449,0.1513,0.1557,0.1592,0.1626,0.1616,0.1595,0.1651,0.1537,0.1524,0.1574,0.1569,0.1561,0.1554,0.1623,0.1623,0.1622,0.1622,0,0.091,0.0965,0.1007,0.1093,0.1123,0.1163,0.1261,0.1309,0.1403,0.1474,0.1505,0.1598,0.1646,0.1665,0.1691,0.1631,0.1617,0.1594,0.1663,0.1652,0.1485,0.148,0.1508,0.1506,0.1503,0.1502,0.15,0,0.0879,0.09,0.0992,0.1024,0.1064,0.1138,0.1186,0.129,0.1335,0.1486,0.1506,0.1605,0.1648,0.162,0.165,0.1625,0.1599,0.158,0.1512,0.149,0.1475,0.1473,0.147,0.1497,0.1496,0.1496,0.1495,0,0.0815,0.0861,0.089,0.0958,0.1017,0.1075,0.1153,0.1174,0.1303,0.1402,0.1467,0.1501,0.1558,0.1567,0.1567,0.1544,0.1582,0.1557,0.156,0.1496,0.1476,0.1464,0.1463,0.1488,0.1489,0.149,0.149,0,0.0768,0.0773,0.0827,0.0877,0.0947,0.0992,0.1046,0.1108,0.1167,0.1324,0.1348,0.1459,0.155,0.1528,0.1529,0.1502,0.1463,0.1391,0.1402,0.1411,0.1356,0.1315,0.1274,0,0,0,0,0,0.0716,0.0717,0.075,0.0804,0.087,0.0919,0.1012,0.1073,0.1194,0.1202,0.1267,0.1316,0.135,0.1408,0.1354,0.1473,0.1458,0.1404,0.1379,0.1448,0.1456,0.1399,0,0,0,0,0,0,0.0684,0.0703,0.0712,0.0728,0.0761,0.0832,0.0892,0.0981,0.0984,0.1112,0.1132,0.1232,0.1273,0.1361,0.1329,0.1341,0.1296,0.1467,0.1463,0.1443,0.1451,0.1457,0.1401,0,0,0,0,0]},{"header":{"parameterUnit":"m.s-1","parameterCategory":2,"la1":30.2991,"la2":30.254,"lo1":-89.0895,"lo2":-89.0444,"dy":0.0017,"dx":0.0017,"nx":28,"ny":28,"refTime":"2024-03-10T03:00:00:Z","depth":"4","parameterNumber":3,"parameterNumberName":"V-component_of_CURRENTS"},"data":[0,0,0,0,0,0,0,0,0,0,0,0,0,0,0,0,0,0,0,0,0,0,0,0,0,0,0,0,0,0,0,0,0,0,0,0,0,0,0,0,0,0,0,0,0,0,0,0,0,0,0,0,0,0,0,0,0,0,0.026,0.026,0,0.0243,0.0242,0.0242,0.0235,0.0235,0.0234,0.0234,0.0177,0.0176,0.0174,0,0,0,0,0,0,0,0,0,0,0,0,0,0.0277,0.0277,0.026,0.026,0.026,0.0243,0.0242,0.0242,0.0235,0.0235,0.0234,0.0234,0.0177,0.0176,0.0174,0,0,0,0,0,0,0,0,0,0,0,0,0,0.0267,0.0277,0.026,0.0253,0.0252,0.0243,0.0242,0.0242,0.0235,0.0235,0.0234,0.0234,0.0178,0.0176,0.0174,0.0162,0,0,0.0167,0.0166,0,0,0,0,0,0,0,0,0.0267,0.0266,0.0254,0.0253,0.0252,0.024,0.0227,0.0213,0.0235,0.0242,0.0234,0.0234,0.0194,0.019,0.0189,0.0159,0.0157,0.0167,0.0165,0.0165,0.0164,0,0,0,0,0,0,0,0.0268,0.0267,0.0254,0.0254,0.0253,0.0247,0.0246,0.0225,0.0219,0.0242,0.0241,0.0237,0.0193,0.0191,0.0188,0.0156,0.0167,0.0165,0.0164,0.0163,0.0101,0.01,0,0,0,0,0,0,0.0269,0.0268,0.0255,0.0254,0.0259,0.0247,0.0245,0.0245,0.022,0.0216,0.0237,0.0237,0.0195,0.019,0.0185,0.0163,0.0165,0.0162,0.0161,0.0101,0.0101,0.01,0,0,0,0,0,0,0.0269,0.0268,0.0255,0.0259,0.0257,0.0247,0.0246,0.0244,0.0241,0.0217,0.0212,0.0236,0.0195,0.0189,0.0164,0.0161,0.0161,0.0159,0.0101,0.0101,0.01,0.0123,0,0,0,0,0,0,0.027,0.0268,0.0271,0.0259,0.0257,0.0245,0.0246,0.0244,0.0239,0.0238,0.0214,0.0209,0.0194,0.0167,0.0161,0.0158,0.0158,0.0102,0.0101,0.01,0.0122,0.0123,0.0123,0,0,0,0,0,0.0271,0.0274,0.0271,0.027,0.026,0.0245,0.0243,0.0236,0.0239,0.0234,0.0219,0.0209,0.0159,0.0165,0.0158,0.0154,0.0102,0.0101,0.0101,0.0122,0.0123,0.0123,0,0,0,0,0,0,0.0279,0.0273,0.027,0.027,0.0256,0.0243,0.0242,0.0236,0.0223,0.0223,0.0204,0.0197,0.0174,0.0159,0.0166,0.0134,0.0129,0.0127,0.0148,0.0148,0.0149,0.016,0.0156,0,0,0,0,0,0.0282,0.0286,0.0271,0.027,0.0266,0.0254,0.0249,0.0241,0.0227,0.0222,0.0203,0.0184,0.0167,0.0154,0.0134,0.0115,0.01,0.0108,0.0108,0.0109,0.0113,0.0088,0.0087,0.0098,0.0098,0.0098,0,0,0.0286,0.0282,0.0284,0.0272,0.0265,0.0258,0.0251,0.0241,0.0237,0.0216,0.0203,0.0183,0.0162,0.0142,0.0131,0.0129,0.0097,0.0108,0.0109,0.0113,0.0087,0.0086,0.0086,0.0097,0.0097,0.0097,0,0,0.0288,0.029,0.0291,0.0282,0.0268,0.0261,0.0258,0.024,0.0235,0.0215,0.0204,0.0183,0.0152,0.0139,0.0129,0.0119,0.0101,0.0111,0.0123,0.0099,0.0098,0.0097,0.0076,0.0073,0.0112,0.0112,0.0112,0,0.0292,0.0293,0.0286,0.0281,0.028,0.0263,0.0262,0.0252,0.0226,0.0223,0.0211,0.0174,0.0152,0.0139,0.0136,0.0121,0.0106,0.0124,0.0101,0.0099,0.0098,0.0076,0.0073,0.0113,0.0113,0.0113,0.0112,0,0.029,0.0294,0.0294,0.0289,0.0282,0.0278,0.0264,0.0255,0.0246,0.0234,0.0213,0.0182,0.0164,0.015,0.014,0.0123,0.0114,0.0105,0.0102,0.0099,0.0076,0.0072,0.0114,0.0114,0.0114,0.0113,0,0,0.0298,0.0296,0.0297,0.0305,0.029,0.0289,0.0281,0.0273,0.0278,0.0243,0.0243,0.0205,0.019,0.0178,0.0159,0.0135,0.0109,0.0118,0.0117,0.0103,0.0056,0.0052,0.0047,0.0096,0.0096,0.0095,0.0044,0,0.0302,0.0309,0.0301,0.0312,0.0321,0.0308,0.0309,0.0297,0.0283,0.0275,0.0243,0.023,0.0202,0.0195,0.0166,0.0126,0.0099,0.0124,0.0056,0.0055,0.0056,0.0043,0.0093,0.0041,0.004,0.0039,0.0039,0,0.0307,0.0316,0.0332,0.0346,0.0349,0.0352,0.0362,0.0356,0.0337,0.0323,0.0297,0.0271,0.0236,0.0212,0.0138,0.0156,0.0108,0.0072,0.0069,0.0057,0.0043,0.0044,0.0031,0.0032,0.0032,0.0033,0.0033,0,0.0339,0.0341,0.0363,0.0366,0.0373,0.0385,0.0388,0.0377,0.0382,0.0356,0.0354,0.0302,0.0284,0.0216,0.0138,0.0138,0.0055,0.0045,-0.0005,-0.0006,0.0004,0.0006,-0.0011,-0.0011,-0.0011,-0.0011,-0.0011,0,0.036,0.0381,0.0385,0.0405,0.0437,0.0423,0.0456,0.0443,0.0433,0.0444,0.0387,0.038,0.0284,0.0226,0.0149,0.0061,0.006,-0.0005,-0.0021,0.0014,0.0017,0.0001,0.0004,-0.0013,-0.0012,-0.0012,-0.0012,0,0.0401,0.0402,0.0438,0.0453,0.046,0.0488,0.051,0.0528,0.0505,0.0514,0.0508,0.0439,0.0357,0.0256,0.0144,0.0082,-0.0007,-0.004,0.0007,-0.0005,-0.0055,-0.0051,-0.0099,-0.0099,-0.01,-0.01,-0.0101,0,0.0424,0.0446,0.0483,0.051,0.0524,0.0559,0.0585,0.0573,0.0585,0.0553,0.0558,0.0481,0.0425,0.0264,0.0153,-0.0001,-0.0024,-0.0067,-0.0067,-0.0054,-0.0064,-0.006,-0.0055,-0.0101,-0.0102,-0.0102,-0.0102,0,0.047,0.0488,0.0522,0.0574,0.0613,0.065,0.0677,0.0686,0.0667,0.0651,0.0596,0.0502,0.0407,0.027,0.0147,0.0039,-0.0038,-0.0073,-0.0073,-0.0073,-0.0058,-0.0067,-0.0062,-0.0104,-0.0103,-0.0103,-0.0103,0,0.0511,0.0543,0.0586,0.0634,0.0683,0.0714,0.0726,0.0724,0.0723,0.0666,0.0653,0.0532,0.046,0.0291,0.0182,0.0069,0.0039,0.0008,0.0003,0.0004,0.0046,0.0081,0.0062,0,0,0,0,0,0.0537,0.0576,0.063,0.0681,0.073,0.075,0.0772,0.0772,0.0752,0.0718,0.0677,0.0581,0.0402,0.0325,0.0211,0.0175,0.0026,0.0039,-0.0011,-0.0113,-0.0111,-0.0081,0,0,0,0,0,0,0.0556,0.0615,0.0639,0.0709,0.0742,0.0791,0.0804,0.079,0.0759,0.0719,0.0624,0.0561,0.0388,0.0468,0.0213,0.0178,0.0132,-0.0049,-0.0052,-0.0114,-0.0113,-0.0111,-0.0079,0,0,0,0,0]}]]